AirNav   Air Wisconsin pilot careers
 
 1091 users online  

4Y9 Eagles Landing Airport
Harrietta, Michigan, USA

GOING TO HARRIETTA?


FAA INFORMATION EFFECTIVE 13 SEPTEMBER 2018

Location

FAA Identifier: 4Y9
Lat/Long: 44-18-30.0170N / 085-46-20.2410W
44-18.500283N / 085-46.337350W
44.3083381 / -85.7722892
(estimated)
Elevation: 1010 ft. / 307.8 m (surveyed)
Variation: 04W (1985)
From city: 3 miles W of HARRIETTA, MI
Time zone: UTC -4 (UTC -5 during Standard Time)
Zip code: 49638

Airport Operations

Airport use: Open to the public
Activation date: 02/1972
Control tower: no
ARTCC: MINNEAPOLIS CENTER
FSS: LANSING FLIGHT SERVICE STATION
NOTAMs facility: LAN (NOTAM-D service available)
Attendance: UNATND
Wind indicator: yes
Segmented circle: no

Airport Communications

CTAF: 122.9
WX AWOS-3 at CAD (15 nm E): 128.325 (231-779-9536)

Nearby radio navigation aids

VOR radial/distance  VOR name  Freq  Var
MBLr089/20.8MANISTEE VOR/DME111.4005W
TVCr206/23.6TRAVERSE CITY VOR/DME114.6002W

 
NDB name  Hdg/Dist  Freq  Var  ID
WEXOR298/10.633604WMA -- .-

Airport Services

Airframe service: NONE
Powerplant service: NONE
Bottled oxygen: NONE
Bulk oxygen: NONE

Runway Information

Runway 8/26

Dimensions: 2400 x 100 ft. / 732 x 30 m
Surface: turf, in poor condition
RY SFC ROUGH & UNEVEN.
Runway edge markings: 08/26 MKD WITH 3 FT YELLOW CONES.
RUNWAY 8  RUNWAY 26
Latitude: 44-18.459167N44-18.594000N
Longitude: 085-47.269667W085-46.115833W
Elevation: 1010.0 ft.1010.0 ft.
Traffic pattern: leftleft
Runway end identifier lights: nono
Obstructions: 60 ft. trees, 60 ft. left and right of centerline
APCH RATIO 20:1 OVR +60 FT TREES, 1200 FT DSTC, BASED ON STRAIGHT OUT.
60 ft. trees, 95 ft. left and right of centerline
APCH RATIO 22:1 OVR +106 FT TREE, 2400 FT DSTC, BASED ON STRAIGHT OUT.

Airport Ownership and Management from official FAA records

Ownership: Privately-owned
Owner: KEN WARD
4196 E STATE RD
PORT CLINTON, OH 43452-2631
Phone (419) 341-1503
Manager: MIKE WOODLEY
3853 APOLLO DR
MIDLAND, MI 48642-6354
Phone (586) 944-7101

Airport Operational Statistics

Aircraft based on the field: 2
Single engine airplanes: 2
    
Aircraft operations: 100/year *
50% transient general aviation
50% local general aviation
* for 12-month period ending 31 December 2016

Additional Remarks

60 FT TREES BOTH SIDES OF RY 100 FT FM RY CNTRLN.
LARGE DEPRESSION E OF RY 26.
ARPT CLSD WHEN SNOW COVERED.

Instrument Procedures

There are no published instrument procedures at 4Y9.

Some nearby airports with instrument procedures:

KCAD - Wexford County Airport (15 nm E)
KMBL - Manistee County-Blacker Airport (20 nm W)
7D3 - Baldwin Municipal Airport (26 nm S)
KFKS - Frankfort Dow Memorial Field (26 nm NW)
KTVC - Cherry Capital Airport (27 nm N)
 
Loc | Ops | Rwys | IFR | FBO | Links
Com | Nav | Svcs | Stats | Notes


 
Area around 4Y9 (Eagles Landing Airport)
 
Road maps at: MapQuest Bing Google
 
Aerial photo
WARNING: Photo may not be current or correct
Aerial photo of 4Y9 (Eagles Landing Airport)
Photo by Martin Siegwart
Photo taken 02-Oct-2014
looking east.

Do you have a better or more recent aerial photo of Eagles Landing Airport that you would like to share? If so, please send us your photo.

 
Sectional chart

 
Airport distance calculator
Flying to Eagles Landing Airport? Find the distance to fly.

From to 4Y9

Sunrise and sunset
Times for 25-Sep-2018
 Local
(UTC-4)
 Zulu
(UTC)
Morning civil twilight07:0611:06
Sunrise07:3511:35
Sunset19:3523:35
Evening civil twilight20:0400:04

Current date and time
Zulu (UTC)  26-Sep-2018 00:08:04
Local (UTC-4)  25-Sep-2018 20:08:04
 
METAR
KCAD 
15nm E 
252355Z AUTO 20004KT 10SM CLR 19/18 A2976 RMK AO2 T01950186
KMBL 
21nm W 
252356Z AUTO 14003KT 10SM FEW060 BKN075 21/19 A2972 RMK AO2 LTG DSNT SW AND W SLP080 T02060189 10256 20206 58013
KFKS 
26nm NW 
252355Z AUTO 00000KT 10SM CLR 20/20 A2972 RMK AO2 T02010195 10225 20198
KTVC 
27nm N 
252353Z 00000KT 10SM FEW032 BKN070 OVC170 21/20 A2971 RMK AO2 PRESFR SLP057 60044 T02110200 10267 20211 58014 $
TAF
KMBL 
21nm W 
251954Z 2520/2618 21007KT P6SM SCT025 BKN035 FM260000 20006KT P6SM VCTS BKN045CB FM260200 25007KT P6SM VCTS OVC025CB FM260400 28011G19KT 6SM -SHRA OVC010 FM260900 32011G20KT P6SM OVC020 FM261500 29011G20KT P6SM BKN035
NOTAMs
Click for the latest NOTAMs
NOTAMs are issued by the DoD/FAA and will open in a separate window not controlled by AirNav.

 

 
 

Would you like to see your business listed on this page?

 If your business provides an interesting product or service to pilots, flight crews, aircraft, or users of the Eagles Landing Airport, you should consider listing it here.  To start the listing process, click on the button below
 
Add a business
 

Other Pages about Eagles Landing Airport

Page from the Michigan Airport Directory (PDF)
 
Update a link
 
Copyright © AirNav, LLC. All rights reserved. Privacy Policy  Contact